Regional Weather Roundup
Issued by NWS

Home | Current Version | Previous Version | Graphics & Text | Print | Product List | Glossary On
Versions: 1 2 3 4 5 6 7 8 9 10 11 12 13 14 15 16 17 18 19 20 21 22 23 24 25 26 27 28 29 30 31 32 33 34 35 36 37 38 39 40 41 42 43 44 45 46 47 48 49 50
000
ASUS43 KDMX 200901
RWRIA

WEATHER ROUNDUP FOR IOWA
NATIONAL WEATHER SERVICE DES MOINES IA
300 AM CST SAT JAN 20 2018

NOTE: "FAIR" INDICATES FEW OR NO CLOUDS BELOW 12,000 FEET WITH NO
SIGNIFICANT WEATHER AND/OR OBSTRUCTIONS TO VISIBILITY.

* - THESE STATIONS ARE NOT NWS STATIONS...THUS NOT UNDER NWS
QUALITY CONTROL.  THEY ALSO DO NOT REPORT WEATHER SUCH
AS PRECIPITATION OR FOG.

IAZ001>003-012>014-020>022-031>034-043>046-201000-
   NORTHWEST IOWA

CITY           SKY/WX    TMP DP  RH WIND       PRES   REMARKS
CARROLL *      CLOUDY    28  27  93 W5        29.79R WCI  23
CHEROKEE *     MOCLDY    27  27 100 CALM      29.79R
DENISON *      CLOUDY    27  27 100 CALM      29.80R
LE MARS *      CLOUDY    25  25 100 CALM      29.80R
ORANGE CITY *  CLOUDY    30  30 100 NW5       29.79R WCI  25
SHELDON *      CLOUDY    27  27 100 CALM      29.77R
SIOUX CITY     CLOUDY    28  27  96 CALM      29.80R
SPENCER        CLOUDY    26  23  88 W3        29.78R
STORM LAKE *   CLOUDY    34  28  80 CALM      29.78R
$$

IAZ055>058-069>071-079>083-090>094-201000-
   SOUTHWEST IOWA

CITY           SKY/WX    TMP DP  RH WIND       PRES   REMARKS
ATLANTIC *     CLOUDY    27  27 100 CALM      29.80R
AUDUBON *      CLOUDY    27  23  86 CALM      29.80R
CLARINDA *     CLOUDY    25  25 100 CALM      29.83R
COUNCIL BLFS * CLOUDY    34  30  86 W5        29.79R WCI  30
CRESTON *      CLOUDY    32  27  80 SW6       29.82R WCI  26
HARLAN  *      CLOUDY    27  27 100 CALM      29.82S
LAMONI         CLOUDY    32  25  75 S9        29.82R WCI  24
RED OAK *      CLOUDY    27  25  93 S6        29.81R WCI  20
SHENANDOAH *   CLOUDY    28  27  93 NE5       29.82R WCI  23
$$

IAZ047>049-059>061-072>074-084-201000-
   CENTRAL IOWA

CITY           SKY/WX    TMP DP  RH WIND       PRES   REMARKS
AMES           CLOUDY    30  28  92 CALM      29.79R
ANKENY *       CLOUDY    28  25  86 CALM      29.81S
BOONE *        CLOUDY    32  28  86 SW6       29.78R WCI  26
CHARITON *     CLOUDY    32  27  80 SW7       29.82R WCI  26
DES MOINES     CLOUDY    32  26  78 S6        29.81R WCI  26
GRINNELL*      CLOUDY    31  27  84 SW7       29.81R WCI  25
KNOXVILLE *    CLOUDY    36  27  69 SW8       29.80R WCI  29
MARSHALLTOWN   CLOUDY    32  28  85 W5        29.79R WCI  27
NEWTON *       CLOUDY    34  27  75 SW7       29.81R WCI  28
PELLA *        CLOUDY    34  27  76 SW5       29.83R WCI  30
PERRY *          N/A     29  27  95 SW3       29.80R
$$

IAZ004>006-015-016-023>025-035-036-201000-
   NORTH CENTRAL IOWA

CITY           SKY/WX    TMP DP  RH WIND       PRES   REMARKS
ALGONA *       CLOUDY    34 N/A N/A N6        29.77R WCI  29
CLARION *        N/A     28  28 100 CALM      29.78R
ESTHERVILLE    CLOUDY    30  28  92 NW5       29.77R WCI  25
FORT DODGE *   CLOUDY    27  25  92 CALM      29.79R
MASON CITY     CLOUDY    27  25  92 CALM      29.78R
FOREST CITY *    N/A     34  32  93 CALM      29.77S
WEBSTER CITY * CLOUDY    30  28  93 CALM      29.77R
IOWA FALLS *     N/A     32  30  91 W5        29.79R WCI  27
$$

IAZ007>011-017>019-026>030-037>042-050>054-066-201000-
   NORTHEAST IOWA

CITY           SKY/WX    TMP DP  RH WIND       PRES   REMARKS
CEDAR RAPIDS     N/A     34  27  75 SW8       29.79R WCI  27
CHARLES CITY *   N/A     32  32 100 W6        29.78R WCI  26
CLINTON *        N/A     33  28  81 W9        29.82R WCI  25
DECORAH *        N/A     34  30  86 CALM      29.76R
DUBUQUE          N/A     30  26  85 SW3       29.79R
MONTICELLO *     N/A     32  28  86 CALM      29.80R
OELWEIN *        N/A     30  30 100 SW5       29.79R WCI  25
WATERLOO         N/A     30  27  88 CALM      29.79R
$$

IAZ064-065-067-068-078-201000-
   EAST CENTRAL IOWA

CITY           SKY/WX    TMP DP  RH WIND       PRES   REMARKS
DAVENPORT        N/A     38  28  67 SW9       29.84R WCI  31
IOWA CITY        N/A     35  26  69 SW3       29.84R
MT. PLEASANT * CLOUDY    34  28  80 S8        29.85S WCI  27
MUSCATINE *      N/A     36  28  75 SW8       29.85R WCI  29
QUAD CITIES      N/A     38  29  70 SW9       29.82R WCI  31
$$

IAZ062-063-075>077-085>089-095>099-201000-
   SOUTHEAST IOWA

CITY           SKY/WX    TMP DP  RH WIND       PRES   REMARKS
BURLINGTON     CLOUDY    35  27  72 SW9       29.86R WCI  28
FAIRFIELD *    CLOUDY    34  27  75 SW7       29.83S WCI  28
FORT MADISON * CLOUDY    37  28  70 SW10      29.87S WCI  30
KEOKUK *       CLOUDY    36  28  75 SW8       29.87R WCI  29
OSKALOOSA *      N/A     33  28  82 SW10      29.83R WCI  25
OTTUMWA        CLOUDY    38  27  64 SW9       29.83R WCI  31
WASHINGTON *   CLOUDY    36  30  80 SW9       29.84R WCI  29
$$

ABBREVIATIONS USED IN REMARKS
   TC - TEMPERATURES IN CELSIUS
  WCI - WIND CHILL INDEX
   HX - HEAT INDEX
  VSB - VISIBILITY
$$





USA.gov is the U.S. government's official web portal to all federal, state and local government web resources and services.